Location: *
(43.9905°S, 176.4941°W)
Time: 00:01:24
(UTC+00:00)

ERS-1 Rocket - Pass Details

Date: 08 December 2019
Orbit: 753 x 758 km, 98.5° (Epoch: 18 January)

Event Time Altitude Azimuth Distance (km) Brightness Sun altitude
Rises 10:41:29 0° 171° (S) 3,257 7.4 -22.1°
Reaches altitude 10° 10:43:50 10° 175° (S) 2,324 6.5 -22.2°
Maximum altitude 10:48:50 55° 251° (WSW) 920 3.5 -22.4°
Enters shadow 10:50:54 33° 312° (NW) 1,277 3.9 -22.4°
